カタログに戻る

NIMBUS 2 DEB

運用中SSO
NORAD 42439·DEBRIS·🇺🇸 United States

打ち上げ May 15, 1966 から Vandenberg Space Force Base

Loading…

次のパス (今後24時間)

TLE

古いSource: Space-Track

元期: Aug 25, 2026, 19:35 UTC

1 42439U 66040BS  26237.81647934  .00001780  00000-0  28273-2 0  9990
2 42439 100.2263  96.4380 0042898 326.5961  33.2468 13.50642841532416

AllMySatでNIMBUS 2 DEBをリアルタイム追跡

Download on the App Store